Theta_e
318 317 316 316 315 317 322 324 322 320 319 318 317 314 314 315 313 313 314 317 316 314 312 313 313 314 315 315 317 316 317 318 319 317 318 316 317 316 316 319 320 324 324 328 335
312 318 316 316 314 317 323 322 320 319 318 318 316 313 313 314 314 314 314 316 312 313 314 314 314 313 313 316 316 314 317 319 317 314 316 315 316 315 318 319 320 331 330 332 334
313 318 316 316 315 318 322 321 319 319 318 317 316 312 313 312 314 315 314 314 312 314 315 315 314 313 314 315 315 316 317 317 316 316 315 315 315 315 316 318 319 334 332 331 331
312 318 315 315 316 318 319 322 320 318 318 318 316 314 315 313 322 317 316 314 312 313 314 315 314 313 315 316 315 316 316 316 316 315 316 316 314 314 314 315 315 331 331 331 330
312 318 315 315 316 317 318 321 320 318 318 318 315 315 315 316 318 317 317 315 314 314 314 316 317 314 315 315 315 316 315 315 314 313 315 314 315 315 313 312 316 329 331 330 330
312 316 316 315 316 317 318 320 320 317 318 318 317 315 315 319 317 316 316 316 314 316 314 315 316 314 313 315 315 314 314 313 314 313 313 314 314 314 312 310 320 328 328 329 329
311 313 316 315 315 316 317 319 319 318 318 317 317 316 316 316 314 316 317 315 314 313 314 314 313 312 312 314 314 312 313 313 313 313 314 312 314 314 311 310 312 319 323 325 328
312 313 317 315 314 316 317 318 319 319 318 317 317 314 315 313 314 318 318 316 313 313 313 312 314 311 312 312 313 314 312 314 313 313 313 312 314 312 309 309 309 310 312 320 323
310 312 317 315 315 316 317 317 318 319 317 315 314 314 313 311 313 318 318 318 315 314 313 313 312 310 312 312 313 313 312 313 314 312 312 311 312 310 308 308 308 306 307 311 318
311 313 317 315 315 316 316 317 317 317 314 314 314 314 312 311 312 314 318 319 315 314 313 313 313 311 310 309 315 312 313 312 312 311 311 310 312 308 309 307 306 305 306 311 314
310 313 317 315 315 315 316 316 315 317 316 316 314 312 311 310 312 311 315 314 313 313 315 314 316 315 310 310 312 311 312 313 311 310 312 309 309 309 308 309 308 305 304 307 310
308 314 315 315 315 315 316 313 312 312 316 311 312 311 310 311 312 311 311 314 314 315 314 313 314 312 311 310 311 312 312 311 311 311 311 310 311 310 308 308 308 308 305 307 307
310 314 315 315 315 316 314 312 312 312 311 312 311 312 311 310 312 312 311 312 314 313 314 314 313 311 312 312 311 310 311 309 310 311 311 310 308 311 310 308 307 309 307 307 306
310 315 315 315 315 315 313 312 312 309 308 310 308 309 311 310 312 310 311 311 312 313 312 312 312 312 312 311 310 310 310 311 311 308 309 306 307 306 308 308 307 306 306 306 308
309 312 315 314 316 315 312 312 311 308 310 307 309 309 310 311 311 310 310 310 312 312 311 313 311 312 311 311 309 311 311 311 310 311 308 310 305 304 306 308 306 305 306 306 306
307 311 314 315 315 315 312 311 309 312 314 310 308 311 311 311 311 309 309 308 309 311 310 309 308 310 311 310 309 309 311 311 310 309 308 308 304 304 306 308 306 307 308 308 308
304 311 314 315 315 314 313 309 311 313 309 309 309 311 311 311 311 310 311 310 311 315 313 308 310 309 309 311 310 311 308 309 309 310 308 306 306 305 307 306 307 310 308 307 307
304 307 315 313 314 313 311 310 312 309 309 308 309 311 311 312 311 311 311 311 308 310 308 310 310 309 309 310 310 309 307 308 310 312 308 305 310 309 307 305 308 309 308 307 307
305 310 314 312 312 312 310 312 309 310 310 309 310 311 312 312 311 311 311 310 309 308 311 309 311 309 309 309 309 310 310 308 307 298 308 305 306 307 306 308 309 309 308 307 306
300 305 305 312 311 311 310 311 309 309 308 309 310 310 312 312 311 311 311 310 309 308 308 309 311 310 309 309 308 308 307 309 306 307 309 307 307 306 306 305 310 309 308 307 306
299 307 301 310 311 313 311 310 308 308 309 308 309 310 309 312 310 311 311 309 309 308 308 310 312 311 309 310 308 307 306 307 309 307 309 307 306 303 307 305 309 309 308 307 306
293 304 301 308 314 312 311 308 310 309 310 309 309 309 310 311 311 311 311 310 310 307 309 311 311 312 310 309 308 308 307 307 308 308 308 308 307 307 305 304 307 309 308 306 305
297 298 300 308 313 312 311 309 312 310 311 310 310 309 309 311 311 310 310 308 308 308 310 311 311 312 312 310 309 309 308 306 308 305 308 308 306 306 307 305 308 308 307 307 306
297 304 301 304 303 312 312 310 314 313 311 312 310 309 309 310 311 311 311 309 308 308 310 311 312 311 311 308 309 310 308 307 307 307 306 306 305 307 307 308 308 308 307 306 306
296 300 297 309 308 311 310 310 314 315 314 313 312 309 310 311 313 313 311 308 308 309 309 309 310 311 309 309 309 309 309 307 308 308 308 307 306 306 308 308 309 308 307 307 307
299 300 299 301 304 310 311 311 311 315 315 316 313 311 310 311 312 313 310 310 310 308 308 308 309 308 310 310 311 309 309 309 308 307 306 306 306 304 305 307 307 309 309 308 307
297 297 299 301 304 310 311 310 311 313 313 314 314 313 313 313 310 309 309 309 308 309 308 309 308 306 307 309 308 309 309 309 308 306 308 307 308 305 306 309 309 309 309 309 308
Wind_Speed
16 31 30 29 29 28 27 39 30 26 25 24 24 22 19 17 12 10 8 12 5 5 3 6 3 1 7 3 2 2 3 1 4 7 4 4 4 3 3 6 4 4 7 19 36
24 32 31 29 28 29 31 31 31 27 24 25 26 26 18 14 13 15 5 19 5 10 9 9 7 18 4 4 2 3 4 4 4 7 7 7 6 6 5 5 5 7 14 29 34
28 26 31 29 28 30 31 29 29 28 24 24 28 26 20 14 5 10 20 18 8 11 8 11 10 3 4 2 3 5 5 3 4 1 11 9 5 4 11 2 7 17 15 20 23
25 24 32 30 30 30 31 29 30 27 23 24 25 25 19 15 7 11 32 18 10 7 6 20 8 4 4 5 5 5 2 2 1 3 6 9 7 6 5 6 11 17 20 18 14
26 21 31 30 29 30 29 30 29 27 25 27 28 24 19 6 5 4 33 19 14 5 10 9 11 8 5 7 5 4 4 4 1 4 7 7 5 5 5 1 12 17 18 14 15
17 22 32 30 29 28 28 32 31 28 26 23 27 22 8 6 7 9 26 28 17 14 5 7 6 13 13 6 7 8 4 7 2 2 4 7 2 5 5 5 11 15 13 14 17
20 22 30 30 29 28 28 31 31 31 29 25 26 21 3 7 6 15 30 27 27 20 8 3 7 11 12 4 6 10 6 4 3 3 3 6 2 4 7 6 10 8 9 10 18
15 23 29 32 29 28 28 30 31 32 30 24 27 10 4 7 6 21 26 19 20 18 15 4 10 16 9 6 5 6 5 5 3 6 2 2 5 5 7 10 10 9 8 9 9
12 26 31 33 30 31 30 29 30 30 27 29 17 5 3 10 13 20 25 18 17 14 13 8 9 12 5 4 4 3 5 5 4 6 4 3 3 3 7 7 9 9 9 8 8
10 30 35 35 33 33 32 31 29 31 31 17 5 2 4 10 14 18 20 18 6 18 8 3 2 9 3 4 14 7 5 4 7 7 3 5 2 5 6 7 9 8 9 9 9
10 30 33 36 36 37 40 35 11 6 15 4 10 5 8 17 18 14 26 11 4 5 8 9 6 13 7 4 3 7 6 7 1 6 5 9 6 8 8 5 8 8 9 9 9
12 23 30 40 41 42 38 8 10 14 11 3 9 6 6 14 8 5 13 8 7 9 9 10 21 14 8 6 9 4 8 4 4 1 3 6 9 6 7 7 8 9 9 10 6
11 24 33 43 42 40 28 18 23 37 7 2 3 7 4 6 12 20 16 11 16 15 19 17 12 14 14 8 11 7 7 6 7 4 2 4 5 5 7 5 6 5 6 5 10
9 23 36 43 38 35 22 32 35 13 5 5 6 5 5 7 4 21 33 14 11 20 20 11 16 19 15 12 8 7 5 7 12 6 4 3 4 6 7 9 9 9 8 8 8
7 14 43 52 29 19 34 26 31 4 5 11 6 13 8 8 9 6 15 4 19 9 9 13 17 20 9 9 6 4 9 8 4 5 5 3 2 6 6 5 8 8 8 8 8
10 14 48 44 23 37 36 25 14 3 6 8 9 10 9 6 3 6 7 1 4 8 1 4 2 6 7 2 7 7 8 8 5 4 1 5 6 5 6 8 5 5 7 8 8
12 13 52 44 16 40 33 14 4 4 13 9 9 16 12 7 7 11 17 19 6 10 12 2 1 1 4 7 4 8 7 2 2 1 5 3 4 7 5 7 9 13 9 9 8
10 10 54 34 34 45 20 10 8 9 13 5 9 18 11 16 5 14 20 18 10 9 4 6 4 5 2 7 8 8 7 6 6 4 3 3 6 5 1 6 8 11 11 8 8
12 15 33 35 44 41 15 15 10 16 10 9 11 19 6 13 8 13 19 19 12 9 12 6 4 0 2 1 9 5 4 5 7 3 4 4 4 4 0 5 5 10 9 9 8
6 6 7 39 49 28 14 10 4 13 11 19 9 10 15 23 8 18 19 19 11 11 4 6 5 2 1 1 2 6 7 3 3 5 3 3 3 5 8 12 8 9 10 9 8
9 0 3 35 45 10 17 9 5 5 17 8 7 9 11 18 9 17 21 6 16 7 6 5 4 2 2 5 8 3 3 3 5 4 5 3 6 7 13 13 16 10 10 12 11
2 1 3 29 12 9 14 9 5 5 2 5 6 4 15 23 8 11 13 5 23 8 10 2 5 4 5 1 2 2 6 6 5 5 1 3 5 1 3 11 15 13 12 9 10
1 2 5 24 12 16 13 18 3 5 4 4 4 4 12 14 5 4 6 5 8 14 10 7 1 4 3 2 1 3 4 4 5 4 7 5 5 3 2 7 9 13 13 13 11
2 2 1 0 1 18 19 24 5 2 5 4 4 3 9 10 4 7 3 3 2 5 6 8 4 7 9 7 7 7 7 5 6 4 5 6 5 4 6 8 8 11 14 13 14
2 1 3 9 6 18 16 19 5 5 2 5 3 5 9 6 4 5 3 2 5 2 6 5 6 5 3 7 8 6 9 8 12 15 10 11 10 6 10 12 15 12 13 16 15
2 2 2 2 2 19 19 14 20 5 5 3 6 5 4 9 9 11 9 5 7 0 6 1 3 4 2 3 4 5 10 16 15 5 7 5 6 7 8 8 11 16 16 17 17
2 2 2 6 3 13 17 7 13 9 6 5 6 5 5 2 5 6 3 7 10 9 7 7 5 3 4 2 6 4 12 16 14 6 17 8 13 6 5 12 15 16 19 21 20
Wind_Direction
248 217 213 211 207 203 192 181 181 182 186 188 177 175 184 190 190 188 202 200 178 188 161 129 250 86 344 268 256 60 76 251 242 162 183 171 118 15 57 99 49 13 154 154 157
265 217 210 207 204 199 190 175 171 171 182 182 174 170 175 174 181 212 202 196 128 115 150 70 13 6 304 236 246 110 121 221 259 155 172 157 125 139 96 95 40 62 99 141 154
251 233 210 205 200 196 188 173 168 168 173 175 176 170 166 152 153 218 201 178 171 129 89 115 85 354 241 210 228 174 189 252 341 307 142 144 138 140 129 178 185 145 144 149 156
252 231 205 200 196 191 188 180 171 168 164 175 169 177 175 169 182 206 197 191 200 100 125 114 59 296 234 208 226 140 178 136 231 1 111 148 144 145 174 195 163 156 155 155 162
243 219 201 197 194 184 183 184 175 169 164 172 171 160 134 174 243 254 196 190 204 164 76 83 84 263 241 193 164 144 143 87 37 54 131 112 140 147 141 132 142 144 153 159 167
253 247 199 193 194 185 181 183 179 169 165 158 178 171 156 183 225 204 186 185 179 147 146 107 154 322 279 211 165 174 166 135 149 88 67 122 141 131 220 133 128 150 163 168 173
246 248 197 191 192 183 179 183 180 172 170 165 167 157 140 157 192 182 187 174 173 145 150 151 9 305 334 263 183 135 106 92 145 183 133 123 71 206 161 141 139 163 172 178 182
251 231 198 190 188 182 176 178 178 173 170 164 161 151 168 186 174 165 170 167 152 145 153 135 219 281 219 257 86 126 101 138 224 156 269 105 209 221 174 146 169 184 197 191 194
258 230 199 187 183 177 168 164 166 167 153 147 153 162 195 172 160 191 170 161 164 165 161 164 333 264 255 163 108 159 173 146 147 201 143 159 208 177 180 159 179 201 210 200 202
280 220 193 183 178 171 161 152 150 152 150 142 125 121 212 175 178 175 179 162 140 139 99 176 334 277 225 163 190 156 156 138 154 202 147 157 207 190 198 168 203 202 211 196 190
282 210 187 181 175 168 151 132 139 145 171 164 152 219 159 160 177 179 154 122 93 152 146 181 197 229 222 154 210 139 149 148 160 183 128 189 194 209 207 186 199 205 211 204 201
269 203 197 182 177 167 154 167 164 141 143 239 181 223 112 140 135 204 187 135 165 171 167 158 218 225 244 196 230 221 184 143 39 1 108 168 230 226 196 214 193 185 198 193 164
263 201 192 182 172 162 169 158 134 132 125 266 154 187 174 149 160 188 176 195 177 186 193 193 215 214 228 195 219 191 211 171 150 160 33 117 299 216 234 214 201 190 166 158 171
247 196 186 179 165 165 178 159 153 125 98 191 175 224 199 172 154 171 170 180 199 193 193 218 233 200 220 207 176 191 192 150 135 125 191 165 249 239 214 196 190 179 170 157 135
269 219 185 175 164 167 172 161 169 24 119 166 172 162 167 164 134 195 175 254 189 168 174 206 194 199 203 198 152 185 144 137 130 112 118 198 119 260 138 201 212 202 192 177 165
270 226 182 180 167 169 167 151 128 94 199 170 155 168 149 188 186 121 170 76 220 179 325 178 204 173 187 121 159 135 100 54 62 79 246 207 156 266 187 200 171 176 173 152 125
320 215 179 180 168 169 160 141 103 191 148 171 182 169 164 157 150 158 183 199 182 157 195 107 19 268 191 102 7 128 125 66 60 277 216 355 151 242 234 220 179 168 162 155 143
300 256 174 167 166 160 152 127 176 175 172 133 147 152 175 149 175 180 175 199 224 177 170 147 189 195 191 167 171 168 146 153 165 179 217 345 222 247 299 327 140 135 148 143 140
307 192 159 158 153 157 145 177 195 169 151 128 120 157 140 170 131 176 188 197 202 188 170 149 184 183 25 8 156 213 169 165 103 38 80 203 273 287 349 64 112 142 141 145 147
25 242 115 154 157 161 165 169 199 152 126 142 150 185 169 176 145 178 185 202 206 195 180 180 118 331 284 88 18 167 162 97 15 134 210 287 240 218 201 198 174 173 163 160 150
33 182 150 156 166 177 184 186 174 172 137 150 158 171 164 178 161 185 185 198 202 178 157 137 114 226 147 203 168 139 188 90 114 133 156 154 251 218 206 189 185 181 174 163 157
87 192 295 157 163 190 185 184 110 138 116 171 127 119 171 176 163 172 186 185 191 151 160 139 107 138 200 228 308 88 186 151 155 220 180 151 265 153 253 197 175 177 165 161 157
70 310 289 186 168 186 171 206 114 154 147 150 121 162 153 168 142 165 171 208 168 171 157 176 134 97 26 352 54 193 210 152 119 94 193 138 257 4 345 139 174 157 156 159 154
67 277 290 89 73 166 171 191 127 57 144 113 108 107 119 160 48 177 106 17 52 169 139 106 158 158 185 195 138 179 191 185 130 137 168 216 212 264 169 160 159 158 158 157 161
47 340 307 170 173 171 176 189 135 143 115 125 86 182 137 134 101 123 106 101 22 85 130 142 176 162 186 168 161 164 187 172 198 207 191 220 199 211 196 180 180 163 159 163 168
13 345 341 24 92 162 182 197 187 121 135 157 137 171 104 155 179 178 138 173 180 164 144 53 205 139 89 63 125 177 190 192 213 179 239 155 239 204 197 141 165 175 168 176 181
112 281 285 347 114 170 187 164 183 126 22 121 141 121 97 111 119 160 56 131 154 151 156 129 125 92 230 80 88 354 207 196 215 198 217 187 220 161 165 183 183 179 184 188 186